Weather History for Wauseon Fulton County Airport, OH

Change the Weather History Date:

Saturday, December 7, 2013

  Actual Average (KTOL) Record (KTOL)
Temperature  
Mean Temperature 20 °F 32 °F  
Max Temperature 26 °F 39 °F 62 °F (1951)
Min Temperature 14 °F 26 °F -2 °F (1885)
Degree Days  
Heating Degree Days 44 33  
Month to date heating degree days 221  
Since 1 July heating degree days 1454  
Cooling Degree Days 0 0  
Month to date cooling degree days 0  
Year to date cooling degree days 793  
Moisture  
Dew Point 12 °F    
Average Humidity 68    
Maximum Humidity 80    
Minimum Humidity 51    
Precipitation  
Precipitation 0.00 in 0.09 in 1.80 in (1966)
Month to date precipitation 0.64  
Year to date precipitation 32.20  
Snow  
Snow 0.00 in 0.20 in - ()
Month to date snowfall 1.2  
Since 1 July snowfall 3.3  
Snow Depth -    
Sea Level Pressure  
Sea Level Pressure 30.53 in    
Wind  
Wind Speed 8 mph (NW)    
Max Wind Speed 15 mph    
Max Gust Speed 20 mph    
Visibility 10 miles    
Events Snow    
T = Trace of Precipitation, MM = Missing Value Source: NWS Daily Summary

Daily Weather History Graph

Daily Weather History Graph

Search for Another Location

Airport:

Trip Planner

Search our weather history database for the weather conditions in past years. The results will help you decide how hot, cold, wet, or windy it might be!

Date:

Astronomy

Dec. 07, 2013 Rise Set
Actual Time 7:49 AM EST 5:06 PM EST
Civil Twilight 7:18 AM EST 5:37 PM EST
Nautical Twilight 6:43 AM EST 6:12 PM EST
Astronomical Twilight 6:10 AM EST 6:45 PM EST
Moon 11:31 AM EST (12/7) 10:49 PM EST (12/7)
Length of Visible Light 10h 18m
Length of Day
9h 16m
Waxing Crescent, 29% of the Moon is Illuminated
Dec 7
Waxing Crescent
Dec 9
First Quarter
Dec 17
Full
Dec 25
Last Quarter
Jan 1
New

Hourly Weather History & Observations

Time (EST) Temp. Windchill Dew Point Humidity Pressure Visibility Wind Dir Wind Speed Gust Speed Precip Events Conditions
12:15 AM 23.0 °F 11.7 °F 12.2 °F 63% 30.40 in 10.0 mi NW 11.5 mph - N/A   Overcast
12:35 AM 23.0 °F 11.1 °F 14.0 °F 68% 30.40 in 10.0 mi NW 12.7 mph - N/A   Overcast
12:55 AM 23.0 °F 11.7 °F 12.2 °F 63% 30.40 in 10.0 mi NW 11.5 mph - N/A   Overcast
1:15 AM 23.0 °F 11.1 °F 12.2 °F 63% 30.40 in 10.0 mi NW 12.7 mph - N/A   Overcast
1:35 AM 21.2 °F 12.6 °F 12.2 °F 68% 30.40 in 10.0 mi NW 6.9 mph - N/A   Mostly Cloudy
1:55 AM 21.2 °F 13.6 °F 12.2 °F 68% 30.41 in 10.0 mi NW 5.8 mph - N/A   Overcast
2:15 AM 19.4 °F 11.5 °F 14.0 °F 80% 30.41 in 10.0 mi NW 5.8 mph - N/A   Overcast
2:35 AM 19.4 °F 11.5 °F 12.2 °F 74% 30.42 in 10.0 mi NW 5.8 mph - N/A   Overcast
2:55 AM 19.4 °F 11.5 °F 12.2 °F 74% 30.43 in 10.0 mi WNW 5.8 mph - N/A   Overcast
3:15 AM 19.4 °F 11.5 °F 12.2 °F 74% 30.44 in 10.0 mi WNW 5.8 mph - N/A   Overcast
3:35 AM 19.4 °F 11.5 °F 14.0 °F 80% 30.44 in 10.0 mi WNW 5.8 mph - N/A   Overcast
3:55 AM 19.4 °F 14.3 °F 14.0 °F 80% 30.45 in 10.0 mi WNW 3.5 mph - N/A   Overcast
4:15 AM 19.4 °F 12.8 °F 14.0 °F 80% 30.45 in 10.0 mi West 4.6 mph - N/A   Overcast
4:35 AM 19.4 °F 11.5 °F 14.0 °F 80% 30.46 in 10.0 mi WNW 5.8 mph - N/A   Overcast
4:55 AM 21.2 °F 14.9 °F 15.8 °F 80% 30.46 in 10.0 mi NW 4.6 mph - N/A   Overcast
5:15 AM 21.2 °F 14.9 °F 15.8 °F 80% 30.47 in 10.0 mi NW 4.6 mph - N/A   Overcast
5:35 AM 21.2 °F 14.9 °F 15.8 °F 80% 30.48 in 10.0 mi NW 4.6 mph - N/A   Overcast
5:55 AM 21.2 °F 14.9 °F 15.8 °F 80% 30.49 in 9.0 mi NNW 4.6 mph - N/A Snow Light Snow
6:15 AM 21.2 °F 16.4 °F 15.8 °F 80% 30.49 in 10.0 mi NNW 3.5 mph - N/A   Overcast
6:35 AM 21.2 °F 13.6 °F 15.8 °F 80% 30.49 in 10.0 mi NNW 5.8 mph - N/A Snow Light Snow
6:55 AM 21.2 °F 13.6 °F 15.8 °F 80% 30.50 in 10.0 mi NNW 5.8 mph - N/A   Overcast
7:15 AM 21.2 °F 12.6 °F 15.8 °F 80% 30.51 in 10.0 mi NW 6.9 mph - N/A   Overcast
7:35 AM 21.2 °F 14.9 °F 15.8 °F 80% 30.51 in 10.0 mi NW 4.6 mph - N/A   Overcast
7:55 AM 21.2 °F 11.7 °F 12.2 °F 68% 30.52 in 10.0 mi NW 8.1 mph - N/A   Mostly Cloudy
8:15 AM 19.4 °F 9.5 °F 10.4 °F 68% 30.52 in 10.0 mi WNW 8.1 mph - N/A   Mostly Cloudy
8:35 AM 21.2 °F 11.7 °F 12.2 °F 68% 30.53 in 10.0 mi WNW 8.1 mph - N/A   Mostly Cloudy
8:55 AM 21.2 °F 10.9 °F 12.2 °F 68% 30.54 in 10.0 mi WNW 9.2 mph - N/A   Partly Cloudy
9:15 AM 23.0 °F 12.4 °F 12.2 °F 63% 30.55 in 10.0 mi WNW 10.4 mph - N/A   Scattered Clouds
9:35 AM 23.0 °F 10.1 °F 10.4 °F 59% 30.55 in 10.0 mi WNW 15.0 mph - N/A   Mostly Cloudy
9:55 AM 23.0 °F 11.1 °F 12.2 °F 63% 30.56 in 10.0 mi NW 12.7 mph - N/A   Overcast
10:15 AM 23.0 °F 10.6 °F 12.2 °F 63% 30.56 in 10.0 mi NW 13.8 mph - N/A   Overcast
10:35 AM 23.0 °F 12.4 °F 12.2 °F 63% 30.57 in 10.0 mi NW 10.4 mph - N/A   Overcast
10:55 AM 23.0 °F 13.9 °F 12.2 °F 63% 30.58 in 8.0 mi NW 8.1 mph - N/A   Overcast
11:15 AM 23.0 °F 14.7 °F 12.2 °F 63% 30.58 in 10.0 mi North 6.9 mph - N/A   Overcast
11:35 AM 23.0 °F 13.9 °F 12.2 °F 63% 30.58 in 10.0 mi NNW 8.1 mph 15.0 mph N/A   Overcast
11:55 AM 23.0 °F 13.9 °F 12.2 °F 63% 30.57 in 10.0 mi WNW 8.1 mph - N/A   Overcast
12:15 PM 23.0 °F 11.1 °F 12.2 °F 63% 30.57 in 10.0 mi NW 12.7 mph - N/A   Overcast
12:35 PM 24.8 °F 14.6 °F 12.2 °F 59% 30.56 in 10.0 mi NW 10.4 mph - N/A   Overcast
12:55 PM 23.0 °F 10.6 °F 12.2 °F 63% 30.56 in 10.0 mi NW 13.8 mph 19.6 mph N/A   Mostly Cloudy
1:15 PM 24.8 °F 13.4 °F 10.4 °F 54% 30.55 in 10.0 mi NW 12.7 mph - N/A   Mostly Cloudy
1:35 PM 24.8 °F 13.4 °F 10.4 °F 54% 30.55 in 10.0 mi NW 12.7 mph - N/A   Scattered Clouds
1:55 PM 24.8 °F 13.4 °F 10.4 °F 54% 30.55 in 10.0 mi WNW 12.7 mph - N/A   Clear
2:15 PM 26.6 °F 17.5 °F 10.4 °F 51% 30.54 in 10.0 mi NNW 9.2 mph - N/A   Clear
2:35 PM 26.6 °F 15.2 °F 10.4 °F 51% 30.53 in 10.0 mi WNW 13.8 mph - N/A   Partly Cloudy
2:55 PM 26.6 °F 16.2 °F 10.4 °F 51% 30.53 in 10.0 mi WNW 11.5 mph - N/A   Partly Cloudy
3:15 PM 26.6 °F 16.2 °F 10.4 °F 51% 30.54 in 10.0 mi NW 11.5 mph 17.3 mph N/A   Partly Cloudy
3:35 PM 26.6 °F 18.2 °F 10.4 °F 51% 30.54 in 10.0 mi NW 8.1 mph - N/A   Partly Cloudy
3:55 PM 24.8 °F 14.6 °F 10.4 °F 54% 30.55 in 10.0 mi WNW 10.4 mph - N/A   Partly Cloudy
4:15 PM 24.8 °F 15.3 °F 10.4 °F 54% 30.56 in 10.0 mi WNW 9.2 mph - N/A   Clear
4:35 PM 24.8 °F 15.3 °F 10.4 °F 54% 30.56 in 10.0 mi NW 9.2 mph - N/A   Partly Cloudy
4:55 PM 23.0 °F 13.9 °F 10.4 °F 59% 30.56 in 10.0 mi WNW 8.1 mph - N/A   Clear
5:15 PM 21.2 °F 13.6 °F 10.4 °F 63% 30.56 in 10.0 mi WNW 5.8 mph - N/A   Clear
5:35 PM 21.2 °F 12.6 °F 10.4 °F 63% 30.56 in 10.0 mi WNW 6.9 mph - N/A   Clear
5:55 PM 19.4 °F 10.4 °F 10.4 °F 68% 30.57 in 10.0 mi NW 6.9 mph - N/A   Clear
6:15 PM 19.4 °F 11.5 °F 10.4 °F 68% 30.57 in 10.0 mi NW 5.8 mph - N/A   Clear
6:35 PM 19.4 °F 10.4 °F 10.4 °F 68% 30.57 in 10.0 mi NW 6.9 mph - N/A   Clear
6:55 PM 19.4 °F 11.5 °F 10.4 °F 68% 30.58 in 10.0 mi NW 5.8 mph - N/A   Clear
7:15 PM 19.4 °F 10.4 °F 10.4 °F 68% 30.58 in 10.0 mi NW 6.9 mph - N/A   Clear
7:35 PM 19.4 °F 11.5 °F 10.4 °F 68% 30.59 in 10.0 mi NNW 5.8 mph - N/A   Clear
7:55 PM 19.4 °F 11.5 °F 10.4 °F 68% 30.60 in 10.0 mi NNW 5.8 mph - N/A   Clear
8:15 PM 19.4 °F 11.5 °F 10.4 °F 68% 30.60 in 10.0 mi NW 5.8 mph - N/A   Clear
8:35 PM 17.6 °F 9.3 °F 10.4 °F 73% 30.59 in 10.0 mi NW 5.8 mph - N/A   Clear
8:55 PM 17.6 °F - 10.4 °F 73% 30.59 in 10.0 mi Calm Calm - N/A   Clear
9:15 PM 17.6 °F 12.3 °F 10.4 °F 73% 30.59 in 10.0 mi NW 3.5 mph - N/A   Clear
9:35 PM 15.8 °F 10.2 °F 10.4 °F 79% 30.59 in 10.0 mi NW 3.5 mph - N/A   Clear
9:55 PM 15.8 °F - 10.4 °F 79% 30.59 in 10.0 mi Calm Calm - N/A   Clear
10:15 PM 15.8 °F - 10.4 °F 79% 30.58 in 10.0 mi Calm Calm - N/A   Clear
10:35 PM 15.8 °F - 8.6 °F 73% 30.59 in 10.0 mi Calm Calm - N/A   Clear
10:55 PM 15.8 °F - 10.4 °F 79% 30.58 in 10.0 mi Calm Calm - N/A   Clear
11:15 PM 15.8 °F 10.2 °F 8.6 °F 73% 30.58 in 10.0 mi NNE 3.5 mph - N/A   Clear
11:35 PM 15.8 °F - 8.6 °F 73% 30.58 in 10.0 mi Calm Calm - N/A   Clear
11:55 PM 14.0 °F - 8.6 °F 79% 30.57 in 10.0 mi Calm Calm - N/A   Clear